BMI05S EGCC-EGJJ

Flight info

Callsign BMI05S
Flight time 0h 59m
Altitude 23000
Route ASMIM DCT NOKIN P17 BEPHE/N0423F360 DCT OSSEP DCT ELNIF DCT ZESPE DCT DAWLY DCT ABBEW N90 ENHEL N862 SKERY
Aircraft B733/M-SDE2E3FHIRW/S

Departure

Time 2026-05-05 18:16
Airport Manchester Airport (EGCC)

Arrival

Time 2026-05-05 19:15
Airport Jersey Airport (EGJJ)
Time Latitude Longitude Altitude Speed Heading
2026-05-05 17:27 53.36066 -2.26847 252 ft 0 kts 315°
2026-05-05 18:02 53.36057 -2.26832 252 ft 2 kts 314°
2026-05-05 18:03 53.36047 -2.26814 253 ft 2 kts 315°
2026-05-05 18:03 53.36036 -2.26796 253 ft 2 kts 314°
2026-05-05 18:03 53.36029 -2.26785 253 ft 2 kts 313°
2026-05-05 18:03 53.36024 -2.26762 253 ft 2 kts 263°
2026-05-05 18:04 53.36027 -2.26745 253 ft 0 kts 234°
2026-05-05 18:04 53.36032 -2.26736 253 ft 1 kts 229°
2026-05-05 18:04 53.36033 -2.26735 253 ft 0 kts 229°
2026-05-05 18:09 53.36030 -2.26740 253 ft 1 kts 230°
2026-05-05 18:09 53.36014 -2.26772 253 ft 5 kts 230°
2026-05-05 18:09 53.35979 -2.26836 253 ft 8 kts 211°
2026-05-05 18:09 53.35917 -2.26837 253 ft 9 kts 185°
2026-05-05 18:10 53.35865 -2.26910 252 ft 11 kts 233°
2026-05-05 18:10 53.35823 -2.27031 250 ft 13 kts 236°
2026-05-05 18:10 53.35762 -2.27159 248 ft 13 kts 230°
2026-05-05 18:10 53.35698 -2.27293 246 ft 15 kts 231°
2026-05-05 18:11 53.35627 -2.27440 243 ft 12 kts 231°
2026-05-05 18:11 53.35589 -2.27518 242 ft 9 kts 234°
2026-05-05 18:11 53.35543 -2.27609 240 ft 11 kts 230°
2026-05-05 18:11 53.35487 -2.27720 238 ft 13 kts 230°
2026-05-05 18:12 53.35455 -2.27847 236 ft 10 kts 279°
2026-05-05 18:12 53.35430 -2.27960 234 ft 12 kts 225°
2026-05-05 18:12 53.35366 -2.28068 232 ft 14 kts 226°
2026-05-05 18:12 53.35289 -2.28194 230 ft 16 kts 228°
2026-05-05 18:13 53.35213 -2.28342 228 ft 13 kts 231°
2026-05-05 18:13 53.35147 -2.28475 225 ft 14 kts 230°
2026-05-05 18:13 53.35081 -2.28610 223 ft 16 kts 232°
2026-05-05 18:13 53.35003 -2.28763 220 ft 18 kts 227°
2026-05-05 18:14 53.34910 -2.28921 216 ft 19 kts 226°
2026-05-05 18:14 53.34812 -2.29096 212 ft 21 kts 228°
2026-05-05 18:14 53.34733 -2.29263 209 ft 15 kts 228°
2026-05-05 18:14 53.34635 -2.29344 206 ft 16 kts 186°
2026-05-05 18:15 53.34553 -2.29282 206 ft 6 kts 131°
2026-05-05 18:15 53.34546 -2.29211 207 ft 6 kts 62°
2026-05-05 18:15 53.34578 -2.29144 209 ft 12 kts 51°
2026-05-05 18:15 53.34672 -2.28947 213 ft 37 kts 50°
2026-05-05 18:16 53.34993 -2.28281 226 ft 109 kts 51°
2026-05-05 18:16 53.35597 -2.27030 263 ft 164 kts 51°
2026-05-05 18:16 53.36298 -2.25542 938 ft 163 kts 51°
2026-05-05 18:16 53.36972 -2.24071 1729 ft 160 kts 52°
2026-05-05 18:17 53.37625 -2.22577 2279 ft 169 kts 52°
2026-05-05 18:17 53.38520 -2.21136 2559 ft 190 kts 27°
2026-05-05 18:17 53.39876 -2.20722 2998 ft 209 kts 354°
2026-05-05 18:17 53.41207 -2.21706 3651 ft 224 kts 319°
2026-05-05 18:18 53.42024 -2.23972 4467 ft 233 kts 296°
2026-05-05 18:18 53.42680 -2.26492 4817 ft 239 kts 296°
2026-05-05 18:18 53.43337 -2.29002 4944 ft 238 kts 296°
2026-05-05 18:18 53.43998 -2.31553 5021 ft 239 kts 296°
2026-05-05 18:19 53.44691 -2.34169 5498 ft 247 kts 299°
2026-05-05 18:19 53.45451 -2.36648 6513 ft 242 kts 299°
2026-05-05 18:19 53.46211 -2.39122 7504 ft 237 kts 299°
2026-05-05 18:19 53.46936 -2.41590 8307 ft 238 kts 292°
2026-05-05 18:20 53.47228 -2.44404 8694 ft 261 kts 268°
2026-05-05 18:20 53.46737 -2.47418 9108 ft 280 kts 249°
2026-05-05 18:20 53.46202 -2.50560 9810 ft 283 kts 262°
2026-05-05 18:20 53.45848 -2.53842 10418 ft 294 kts 261°
2026-05-05 18:21 53.44980 -2.57121 10517 ft 325 kts 232°
2026-05-05 18:21 53.43116 -2.59423 11034 ft 342 kts 202°
2026-05-05 18:21 53.40776 -2.59988 11777 ft 350 kts 175°
2026-05-05 18:21 53.38395 -2.59066 12560 ft 353 kts 169°
2026-05-05 18:22 53.35981 -2.58512 13303 ft 355 kts 178°
2026-05-05 18:22 53.33508 -2.58423 14042 ft 357 kts 183°
2026-05-05 18:22 53.31017 -2.58584 14784 ft 360 kts 185°
2026-05-05 18:22 53.28521 -2.58876 15515 ft 362 kts 187°
2026-05-05 18:23 53.26012 -2.59235 16227 ft 364 kts 187°
2026-05-05 18:23 53.23489 -2.59630 16913 ft 367 kts 188°
2026-05-05 18:23 53.20958 -2.60043 17582 ft 370 kts 188°
2026-05-05 18:23 53.18388 -2.60471 18239 ft 373 kts 188°
2026-05-05 18:24 53.15776 -2.60909 18890 ft 376 kts 188°
2026-05-05 18:24 53.13167 -2.61348 19514 ft 379 kts 188°
2026-05-05 18:24 53.10561 -2.61788 20118 ft 382 kts 188°
2026-05-05 18:24 53.07897 -2.62236 20724 ft 384 kts 188°
2026-05-05 18:25 53.05240 -2.62683 21323 ft 387 kts 188°
2026-05-05 18:25 53.03447 -2.62985 21710 ft 389 kts 188°
2026-05-05 18:25 52.99828 -2.63593 22451 ft 393 kts 188°
2026-05-05 18:25 52.97089 -2.64053 22883 ft 398 kts 188°
2026-05-05 18:26 52.94350 -2.64512 23007 ft 396 kts 188°
2026-05-05 18:26 52.91590 -2.64974 23036 ft 399 kts 188°
2026-05-05 18:26 52.88843 -2.65440 23002 ft 399 kts 188°
2026-05-05 18:26 52.86079 -2.65907 23013 ft 396 kts 188°
2026-05-05 18:27 52.83309 -2.66372 23012 ft 397 kts 188°
2026-05-05 18:27 52.80597 -2.66825 23015 ft 398 kts 188°
2026-05-05 18:27 52.77823 -2.67287 23018 ft 398 kts 187°
2026-05-05 18:27 52.75052 -2.67748 23019 ft 399 kts 187°
2026-05-05 18:28 52.69558 -2.68659 23012 ft 398 kts 187°
2026-05-05 18:28 52.66775 -2.69119 23010 ft 398 kts 187°
2026-05-05 18:28 52.64022 -2.69574 23004 ft 398 kts 187°
2026-05-05 18:29 52.61273 -2.70028 23002 ft 398 kts 187°
2026-05-05 18:29 52.58537 -2.70479 23008 ft 398 kts 187°
2026-05-05 18:29 52.55759 -2.70936 23004 ft 398 kts 187°
2026-05-05 18:29 52.53024 -2.71386 23001 ft 398 kts 187°
2026-05-05 18:30 52.50240 -2.71843 22998 ft 398 kts 187°
2026-05-05 18:30 52.47504 -2.72291 23001 ft 397 kts 187°
2026-05-05 18:30 52.44727 -2.72745 22998 ft 397 kts 187°
2026-05-05 18:30 52.42014 -2.73188 22996 ft 397 kts 187°
2026-05-05 18:31 52.39261 -2.73637 22994 ft 397 kts 187°
2026-05-05 18:31 52.36502 -2.74087 22993 ft 397 kts 187°
2026-05-05 18:31 52.33757 -2.74533 22992 ft 396 kts 187°
2026-05-05 18:31 52.31022 -2.74977 22988 ft 396 kts 187°
2026-05-05 18:32 52.28258 -2.75425 22989 ft 396 kts 187°
2026-05-05 18:32 52.25535 -2.75867 22989 ft 396 kts 187°
2026-05-05 18:32 52.22785 -2.76311 22987 ft 397 kts 187°
2026-05-05 18:32 52.20035 -2.76756 22989 ft 396 kts 187°
2026-05-05 18:33 52.17279 -2.77201 22988 ft 396 kts 187°
2026-05-05 18:33 52.14561 -2.77639 22984 ft 396 kts 188°
2026-05-05 18:33 52.11801 -2.78084 22983 ft 396 kts 187°
2026-05-05 18:33 52.09065 -2.78524 22983 ft 396 kts 187°
2026-05-05 18:34 52.06311 -2.78966 22986 ft 396 kts 187°
2026-05-05 18:34 52.03586 -2.79403 22983 ft 396 kts 187°
2026-05-05 18:34 52.00823 -2.79845 22979 ft 396 kts 187°
2026-05-05 18:34 51.98076 -2.80285 22976 ft 396 kts 187°
2026-05-05 18:35 51.95334 -2.80723 22973 ft 397 kts 187°
2026-05-05 18:35 51.92582 -2.81162 22977 ft 397 kts 187°
2026-05-05 18:35 51.89948 -2.81582 22979 ft 397 kts 187°
2026-05-05 18:35 51.87107 -2.82033 22952 ft 396 kts 187°
2026-05-05 18:36 51.84365 -2.82519 22972 ft 396 kts 189°
2026-05-05 18:36 51.81632 -2.83102 22980 ft 397 kts 189°
2026-05-05 18:36 51.78889 -2.83693 22980 ft 396 kts 189°
2026-05-05 18:36 51.76130 -2.84286 22970 ft 397 kts 189°
2026-05-05 18:37 51.73396 -2.84873 22969 ft 397 kts 189°
2026-05-05 18:37 51.70680 -2.85454 22975 ft 397 kts 189°
2026-05-05 18:37 51.67918 -2.86044 22974 ft 397 kts 189°
2026-05-05 18:37 51.65185 -2.86627 22971 ft 398 kts 189°
2026-05-05 18:38 51.62414 -2.87219 22978 ft 398 kts 189°
2026-05-05 18:38 51.59671 -2.87803 22975 ft 399 kts 189°
2026-05-05 18:38 51.56927 -2.88386 22978 ft 400 kts 189°
2026-05-05 18:38 51.54211 -2.89227 22970 ft 396 kts 201°
2026-05-05 18:39 51.51633 -2.90796 22968 ft 396 kts 203°
2026-05-05 18:39 51.49041 -2.92421 22982 ft 396 kts 203°
2026-05-05 18:39 51.46485 -2.93989 22979 ft 396 kts 202°
2026-05-05 18:39 51.43878 -2.95568 22979 ft 396 kts 202°
2026-05-05 18:40 51.41277 -2.97134 22981 ft 397 kts 202°
2026-05-05 18:40 51.38676 -2.98694 22979 ft 397 kts 202°
2026-05-05 18:40 51.36099 -3.00237 22973 ft 397 kts 202°
2026-05-05 18:40 51.33480 -3.01803 22978 ft 397 kts 202°
2026-05-05 18:41 51.30923 -3.03329 22987 ft 397 kts 202°
2026-05-05 18:41 51.28332 -3.04874 22980 ft 397 kts 202°
2026-05-05 18:41 51.25740 -3.06418 22974 ft 397 kts 202°
2026-05-05 18:41 51.23132 -3.07968 22970 ft 398 kts 202°
2026-05-05 18:42 51.20543 -3.09501 22974 ft 398 kts 202°
2026-05-05 18:42 51.17953 -3.11035 22965 ft 398 kts 202°
2026-05-05 18:42 51.15342 -3.12581 22971 ft 398 kts 202°
2026-05-05 18:42 51.12745 -3.14115 22973 ft 398 kts 202°
2026-05-05 18:43 51.10145 -3.15648 22969 ft 398 kts 202°
2026-05-05 18:43 51.07544 -3.17182 22963 ft 399 kts 202°
2026-05-05 18:43 51.04930 -3.18723 22968 ft 399 kts 202°
2026-05-05 18:43 51.02351 -3.20242 22968 ft 399 kts 202°
2026-05-05 18:44 50.99740 -3.21778 22962 ft 399 kts 202°
2026-05-05 18:44 50.97138 -3.23307 22960 ft 400 kts 202°
2026-05-05 18:44 50.94520 -3.24843 22964 ft 400 kts 202°
2026-05-05 18:44 50.91929 -3.26362 22970 ft 400 kts 202°
2026-05-05 18:45 50.89296 -3.27903 22949 ft 400 kts 202°
2026-05-05 18:45 50.86695 -3.29417 22943 ft 401 kts 202°
2026-05-05 18:45 50.84070 -3.30945 22963 ft 402 kts 202°
2026-05-05 18:45 50.81426 -3.32486 22964 ft 402 kts 202°
2026-05-05 18:46 50.78817 -3.34004 22966 ft 402 kts 202°
2026-05-05 18:46 50.76172 -3.35543 22969 ft 402 kts 202°
2026-05-05 18:46 50.73553 -3.37065 22960 ft 403 kts 202°
2026-05-05 18:46 50.70925 -3.38582 22973 ft 402 kts 202°
2026-05-05 18:47 50.68286 -3.40105 22971 ft 401 kts 202°
2026-05-05 18:47 50.65668 -3.41619 22962 ft 402 kts 202°
2026-05-05 18:47 50.63028 -3.43145 22963 ft 403 kts 202°
2026-05-05 18:47 50.60385 -3.44671 22971 ft 403 kts 202°
2026-05-05 18:48 50.57769 -3.46166 22964 ft 404 kts 199°
2026-05-05 18:48 50.54983 -3.46971 22985 ft 406 kts 187°
2026-05-05 18:48 50.52164 -3.47367 22970 ft 406 kts 186°
2026-05-05 18:48 50.49372 -3.47256 22937 ft 407 kts 167°
2026-05-05 18:49 50.46748 -3.45502 22988 ft 408 kts 148°
2026-05-05 18:49 50.44332 -3.43144 22967 ft 409 kts 149°
2026-05-05 18:49 50.41859 -3.40893 22971 ft 408 kts 151°
2026-05-05 18:49 50.39360 -3.38755 22965 ft 408 kts 152°
2026-05-05 18:50 50.36871 -3.36703 22964 ft 407 kts 152°
2026-05-05 18:50 50.34340 -3.34646 22959 ft 407 kts 152°
2026-05-05 18:50 50.31822 -3.32608 22957 ft 407 kts 152°
2026-05-05 18:50 50.29300 -3.30574 22957 ft 407 kts 152°
2026-05-05 18:51 50.26772 -3.28537 22959 ft 406 kts 152°
2026-05-05 18:51 50.24230 -3.26493 22956 ft 406 kts 152°
2026-05-05 18:51 50.21582 -3.24882 22953 ft 406 kts 166°
2026-05-05 18:51 50.18826 -3.23947 22952 ft 408 kts 168°
2026-05-05 18:52 50.16045 -3.23016 22946 ft 405 kts 167°
2026-05-05 18:52 50.13298 -3.22059 22265 ft 404 kts 166°
2026-05-05 18:52 50.10550 -3.21081 21418 ft 404 kts 166°
2026-05-05 18:52 50.07856 -3.20116 21008 ft 394 kts 166°
2026-05-05 18:53 50.05144 -3.19143 20628 ft 406 kts 166°
2026-05-05 18:53 50.02370 -3.18148 20243 ft 407 kts 166°
2026-05-05 18:53 49.99613 -3.17009 19840 ft 407 kts 156°
2026-05-05 18:53 49.97192 -3.14789 19471 ft 406 kts 143°
2026-05-05 18:54 49.94861 -3.12278 19081 ft 406 kts 144°
2026-05-05 18:54 49.92481 -3.09859 18700 ft 407 kts 145°
2026-05-05 18:54 49.90108 -3.07442 18314 ft 407 kts 144°
2026-05-05 18:54 49.87761 -3.05049 17686 ft 412 kts 144°
2026-05-05 18:55 49.85369 -3.02610 16840 ft 411 kts 144°
2026-05-05 18:55 49.82986 -3.00176 15988 ft 408 kts 144°
2026-05-05 18:55 49.80609 -2.97748 15261 ft 400 kts 144°
2026-05-05 18:55 49.78333 -2.95425 14850 ft 383 kts 144°
2026-05-05 18:56 49.76157 -2.93205 14422 ft 370 kts 144°
2026-05-05 18:56 49.74047 -2.91054 13951 ft 359 kts 144°
2026-05-05 18:56 49.71959 -2.88927 13441 ft 351 kts 144°
2026-05-05 18:56 49.69955 -2.86889 12959 ft 344 kts 144°
2026-05-05 18:57 49.67962 -2.84863 12525 ft 338 kts 144°
2026-05-05 18:57 49.65996 -2.82865 12084 ft 339 kts 144°
2026-05-05 18:57 49.63997 -2.80836 11609 ft 348 kts 144°
2026-05-05 18:57 49.61973 -2.78786 11129 ft 343 kts 144°
2026-05-05 18:58 49.59971 -2.76759 10637 ft 339 kts 144°
2026-05-05 18:58 49.58025 -2.74792 10193 ft 333 kts 144°
2026-05-05 18:58 49.56060 -2.72805 10055 ft 342 kts 144°
2026-05-05 18:58 49.54103 -2.70830 9963 ft 330 kts 144°
2026-05-05 18:59 49.52231 -2.68944 9935 ft 310 kts 144°
2026-05-05 18:59 49.50492 -2.67164 9904 ft 291 kts 139°
2026-05-05 18:59 49.49236 -2.64865 9694 ft 274 kts 116°
2026-05-05 18:59 49.48284 -2.62327 9156 ft 279 kts 117°
2026-05-05 19:00 49.47213 -2.59784 8741 ft 283 kts 121°
2026-05-05 19:00 49.46056 -2.57224 8373 ft 302 kts 121°
2026-05-05 19:00 49.44856 -2.54570 7967 ft 298 kts 121°
2026-05-05 19:00 49.43684 -2.51979 7540 ft 294 kts 121°
2026-05-05 19:01 49.42527 -2.49425 7126 ft 289 kts 121°
2026-05-05 19:01 49.41407 -2.46956 7056 ft 272 kts 121°
2026-05-05 19:01 49.40343 -2.44606 6903 ft 263 kts 121°
2026-05-05 19:01 49.39310 -2.42323 6639 ft 260 kts 121°
2026-05-05 19:02 49.38288 -2.40066 6332 ft 259 kts 120°
2026-05-05 19:02 49.37266 -2.37812 6046 ft 257 kts 120°
2026-05-05 19:02 49.36259 -2.35594 5974 ft 246 kts 120°
2026-05-05 19:02 49.35298 -2.33477 5823 ft 239 kts 121°
2026-05-05 19:03 49.34364 -2.31411 5667 ft 229 kts 121°
2026-05-05 19:03 49.33479 -2.29463 5524 ft 217 kts 120°
2026-05-05 19:03 49.32643 -2.27620 5342 ft 207 kts 120°
2026-05-05 19:03 49.31826 -2.25820 5183 ft 205 kts 120°
2026-05-05 19:04 49.31006 -2.24015 5034 ft 206 kts 120°
2026-05-05 19:04 49.30188 -2.22218 4837 ft 207 kts 120°
2026-05-05 19:04 49.29349 -2.20376 4290 ft 220 kts 120°
2026-05-05 19:04 49.28444 -2.18389 3690 ft 227 kts 120°
2026-05-05 19:05 49.27574 -2.16501 3606 ft 211 kts 120°
2026-05-05 19:05 49.26732 -2.14663 3247 ft 211 kts 120°
2026-05-05 19:05 49.25908 -2.12863 3007 ft 204 kts 119°
2026-05-05 19:05 49.25101 -2.11112 2936 ft 198 kts 120°
2026-05-05 19:06 49.24305 -2.09373 2969 ft 201 kts 120°
2026-05-05 19:06 49.23502 -2.07626 2995 ft 199 kts 120°
2026-05-05 19:06 49.22634 -2.05956 2975 ft 202 kts 124°
2026-05-05 19:06 49.21739 -2.04320 2983 ft 201 kts 124°
2026-05-05 19:07 49.20838 -2.02670 2965 ft 202 kts 124°
2026-05-05 19:07 49.19937 -2.01020 2778 ft 205 kts 124°
2026-05-05 19:07 49.19031 -1.99354 2540 ft 200 kts 124°
2026-05-05 19:07 49.18151 -1.97731 2447 ft 198 kts 124°
2026-05-05 19:08 49.17267 -1.96093 2391 ft 200 kts 124°
2026-05-05 19:08 49.16386 -1.94461 2306 ft 198 kts 124°
2026-05-05 19:08 49.15511 -1.92841 2221 ft 199 kts 124°
2026-05-05 19:08 49.14634 -1.91213 2139 ft 197 kts 124°
2026-05-05 19:09 49.14037 -1.89411 2014 ft 189 kts 92°
2026-05-05 19:09 49.14218 -1.87514 1937 ft 178 kts 59°
2026-05-05 19:09 49.15030 -1.86129 1956 ft 175 kts 31°
2026-05-05 19:09 49.16170 -1.85565 1967 ft 177 kts
2026-05-05 19:10 49.17372 -1.86014 1983 ft 181 kts 332°
2026-05-05 19:10 49.18281 -1.87380 1983 ft 188 kts 304°
2026-05-05 19:10 49.18897 -1.89142 1986 ft 190 kts 302°
2026-05-05 19:10 49.19498 -1.90948 1984 ft 190 kts 301°
2026-05-05 19:11 49.20090 -1.92725 1982 ft 188 kts 301°
2026-05-05 19:11 49.20691 -1.94525 1975 ft 189 kts 302°
2026-05-05 19:11 49.21290 -1.96309 1977 ft 189 kts 302°
2026-05-05 19:11 49.21887 -1.98093 1986 ft 180 kts 302°
2026-05-05 19:12 49.22296 -1.99798 1950 ft 168 kts 279°
2026-05-05 19:12 49.22315 -2.01556 1992 ft 164 kts 271°
2026-05-05 19:12 49.22202 -2.03261 2128 ft 154 kts 267°
2026-05-05 19:12 49.22043 -2.04936 2151 ft 158 kts 267°
2026-05-05 19:13 49.21883 -2.06594 2056 ft 152 kts 268°
2026-05-05 19:13 49.21734 -2.08195 1911 ft 156 kts 268°
2026-05-05 19:13 49.21567 -2.09851 1584 ft 152 kts 268°
2026-05-05 19:13 49.21429 -2.11413 1349 ft 146 kts 269°
2026-05-05 19:14 49.21314 -2.12971 1192 ft 146 kts 269°
2026-05-05 19:14 49.21216 -2.14522 905 ft 147 kts 268°
2026-05-05 19:14 49.21081 -2.16035 677 ft 145 kts 267°
2026-05-05 19:14 49.20964 -2.17543 435 ft 136 kts 267°
2026-05-05 19:15 49.20845 -2.18946 273 ft 127 kts 262°
2026-05-05 19:15 49.20750 -2.20084 271 ft 83 kts 262°
2026-05-05 19:15 49.20706 -2.20626 270 ft 18 kts 261°
2026-05-05 19:15 49.20663 -2.20700 270 ft 10 kts 186°
2026-05-05 19:16 49.20625 -2.20608 270 ft 12 kts 93°
2026-05-05 19:16 49.20611 -2.20475 270 ft 12 kts 106°
2026-05-05 19:16 49.20584 -2.20341 270 ft 13 kts 107°
2026-05-05 19:16 49.20557 -2.20204 271 ft 13 kts 106°
2026-05-05 19:17 49.20533 -2.20078 271 ft 8 kts 107°
2026-05-05 19:17 49.20516 -2.19988 271 ft 8 kts 101°
2026-05-05 19:17 49.20526 -2.19936 271 ft 3 kts 42°
2026-05-05 19:17 49.20555 -2.19932 271 ft 5 kts 351°
2026-05-05 19:18 49.20591 -2.19920 272 ft 6 kts 41°
2026-05-05 19:18 49.20602 -2.19847 272 ft 7 kts 83°
2026-05-05 19:18 49.20609 -2.19767 272 ft 7 kts 84°
2026-05-05 19:18 49.20612 -2.19723 272 ft 0 kts 81°
2026-05-05 19:19 49.20614 -2.19704 272 ft 3 kts 83°
2026-05-05 19:19 49.20602 -2.19662 273 ft 5 kts 155°
2026-05-05 19:19 49.20571 -2.19644 272 ft 3 kts 160°
2026-05-05 19:19 49.20560 -2.19638 272 ft 0 kts 160°